SKYNET 5A

Last updated on Jan. 25, 2020, 4:43 a.m. UTC

1 30794U 07007B   20024.57020743 -.00000280  00000-0  00000-0 0  9994
2 30794   0.2321  82.0938 0003504 219.9021 121.7985  1.00273812 47276
UTC
Height (km)
Latitude
Longitude
Inclination
Orbital Period
UTC large
Height (km)
Speed (km/s)
/
Latitude / Longitude
Inclination (degrees)
Orbital Period (minutes)
Azimuth
Elevation
Range (km)
Doppler Factor
iOS Compass Heading
iOS Angle

Next 30 passes for location: Hong Kong

Rise time Rise Azimuth (degrees) Set time Set Azimuth (degrees) Duration Max altitude (degrees)

No matching passes for this satellites